sat.trackr.live / text

‹ back to catalog

STARLINK-36165

NORAD 66937 · 2025-286N

PAYLOAD ACTIVE UNKNOWN

§ Identity

Operator
Country
US
Launch date
2025-12-07
Launch site
AFWTR
Launch vehicle
Mass (kg)
RCS (m²)

Purposes: comms

External: N2YO · Heavens-Above · Gunter

§ Orbital elements

Epoch: 2026-09-20T11:27:30.602592Z

Period
93.85 min
Inclination
53.1570°
Eccentricity
0.0001314
Mean motion
15.34399684 rev/d
Perigee alt
461.8 km
Apogee alt
463.6 km
Semi-major
6,840.8 km
B*
8.0640e-4
RAAN
169.8548°
Arg perigee
86.2820°
Mean anomaly
273.8333°
Rev number
4,529

§ Raw data

STARLINK-361651 66937U 25286N   26263.47743753  .00026967  00000+0  80640-3 0  99932 66937  53.1570 169.8548 0001314  86.2820 273.8333 15.34399684 45291

JSON: /api/v1/satellites/66937 · /tle

For live sub-satellite position, see the globe view (requires WebGL).

§ Visibility from observer

Set your observer location to see the next 7 days of passes ≥ 10°. The values pass through the URL so the page stays shareable.

No JS? Fill the form by hand. The geolocation button needs JavaScript.